DEIMOS-1

Last updated on Thu Sep 10 2026 00:02:43 GMT+0000 (Coordinated Universal Time)

1 35681U 09041A 26252.56096443 .00000409 00000+0 67487-4 0 9999 2 35681 97.7510 46.1902 0000422 33.3508 326.7728 14.75310629919323
UTC large
Height (km)
Speed (km/s)
/
Latitude / Longitude
Inclination (degrees)
Orbital Period (minutes)
Azimuth
Elevation
Range (km)
Doppler Factor

Next 0 passes for location: London (51.5072 / 0.1276)

No passes found over London.
DEIMOS-1